Weather History for KGCC - April, 2014

Change the Weather History Date:

Saturday, April 12, 2014

  Actual Average Record
Temperature  
Mean Temperature 41 °F 41 °F  
Max Temperature 54 °F 55 °F 80 °F (2003)
Min Temperature 28 °F 28 °F 8 °F (1940)
Degree Days  
Heating Degree Days 24 24  
Month to date heating degree days 271 301  
Since 1 July heating degree days 6880 6648  
Cooling Degree Days 0 0  
Month to date cooling degree days 0 0  
Year to date cooling degree days 0 0  
Moisture  
Dew Point 31 °F    
Average Humidity 68    
Maximum Humidity 92    
Minimum Humidity 44    
Precipitation  
Precipitation 0.06 in 0.05 in 1.00 in (1927)
Month to date precipitation 0.10 0.41  
Year to date precipitation 2.47 2.15  
Sea Level Pressure  
Sea Level Pressure 29.88 in    
Wind  
Wind Speed 13 mph (North)    
Max Wind Speed 24 mph    
Max Gust Speed 29 mph    
Visibility 7 miles    
Events Rain , Snow    
T = Trace of Precipitation, MM = Missing Value Source: NWS Daily Summary

Daily Weather History Graph

Daily Weather History Graph

Search for Another Location

Airport or City:

Trip Planner

Search our weather history database for the weather conditions in past years. The results will help you decide how hot, cold, wet, or windy it might be!

Date:

Astronomy

Apr. 12, 2014 Rise Set
Actual Time 6:23 AM MDT 7:43 PM MDT
Civil Twilight 5:53 AM MDT 8:13 PM MDT
Nautical Twilight 5:17 AM MDT 8:49 PM MDT
Astronomical Twilight 4:39 AM MDT 9:28 PM MDT
Moon 5:19 PM MDT (4/12) 4:57 AM MDT (4/12)
Length of Visible Light 14h 19m
Length of Day
13h 19m
Waxing Gibbous, 93% of the Moon is Illuminated
Apr 12
Waxing Gibbous
Apr 15
Full
Apr 22
Last Quarter
Apr 29
New
May 6
First Quarter

Hourly Weather History & Observations

Time (MDT) Temp. Windchill Dew Point Humidity Pressure Visibility Wind Dir Wind Speed Gust Speed Precip Events Conditions
12:53 AM 37.9 °F - 30.0 °F 73% 29.68 in 10.0 mi Calm Calm - N/A   Clear
1:53 AM 35.1 °F - 30.0 °F 82% 29.69 in 10.0 mi Calm Calm - N/A   Clear
2:53 AM 39.0 °F 35.7 °F 30.0 °F 70% 29.71 in 10.0 mi WNW 4.6 mph - N/A   Clear
3:53 AM 41.0 °F 37.1 °F 28.0 °F 60% 29.73 in 10.0 mi NW 5.8 mph - N/A   Clear
4:53 AM 39.0 °F 33.4 °F 28.9 °F 67% 29.73 in 10.0 mi NNW 8.1 mph - N/A   Clear
5:53 AM 37.9 °F 32.7 °F 28.9 °F 70% 29.73 in 10.0 mi NNW 6.9 mph - N/A   Clear
6:53 AM 37.9 °F 35.5 °F 30.0 °F 73% 29.75 in 10.0 mi NNW 3.5 mph - N/A   Clear
7:53 AM 42.1 °F - 33.1 °F 70% 29.79 in 10.0 mi Calm Calm - N/A   Clear
8:53 AM 48.0 °F - 32.0 °F 54% 29.81 in 10.0 mi North 11.5 mph - N/A   Clear
9:53 AM 52.0 °F - 30.9 °F 45% 29.81 in 10.0 mi North 12.7 mph 19.6 mph N/A   Clear
10:53 AM 52.0 °F - 30.0 °F 43% 29.84 in 10.0 mi North 13.8 mph - N/A   Scattered Clouds
11:53 AM 54.0 °F - 32.0 °F 43% 29.82 in 10.0 mi North 15.0 mph 19.6 mph N/A   Mostly Cloudy
12:53 PM 50.0 °F - 30.9 °F 48% 29.83 in 10.0 mi NNE 16.1 mph 21.9 mph N/A   Overcast
1:53 PM 48.9 °F - 32.0 °F 52% 29.85 in 10.0 mi NNE 16.1 mph - N/A   Overcast
2:53 PM 48.9 °F - 33.1 °F 54% 29.85 in 10.0 mi NNE 16.1 mph - N/A   Overcast
3:53 PM 46.9 °F - 33.1 °F 59% 29.84 in 10.0 mi North 19.6 mph - N/A   Overcast
4:36 PM 44.6 °F 37.2 °F 33.8 °F 66% 29.84 in 10.0 mi NNE 17.3 mph - N/A   Overcast
4:53 PM 44.1 °F 36.2 °F 34.0 °F 68% 29.86 in 10.0 mi NNE 18.4 mph - N/A   Overcast
5:53 PM 42.1 °F 33.9 °F 34.0 °F 73% 29.88 in 10.0 mi NNE 17.3 mph - N/A   Overcast
6:53 PM 39.9 °F 31.1 °F 35.1 °F 83% 29.92 in 10.0 mi NNE 17.3 mph 24.2 mph 0.00 in Rain Light Rain
7:40 PM 37.4 °F 26.9 °F 35.6 °F 93% 29.91 in 10.0 mi North 20.7 mph 28.8 mph 0.02 in Rain Light Rain
7:53 PM 35.1 °F 25.2 °F 33.1 °F 92% 29.95 in 3.0 mi NNE 16.1 mph - 0.04 in Snow Light Snow
8:03 PM 35.6 °F 25.2 °F 33.8 °F 93% 29.93 in 5.0 mi North 18.4 mph - 0.01 in Snow Light Snow
8:36 PM 33.8 °F 22.2 °F 32.0 °F 93% 29.94 in 10.0 mi North 20.7 mph - 0.01 in   Overcast
8:53 PM 33.1 °F 21.9 °F 30.9 °F 92% 29.98 in 8.0 mi North 18.4 mph - 0.01 in   Overcast
9:17 PM 32.0 °F 20.1 °F 30.2 °F 93% 29.97 in 2.0 mi NNE 19.6 mph 25.3 mph 0.00 in Snow Light Snow
9:31 PM 32.0 °F 21.2 °F 30.2 °F 93% 29.97 in 2.5 mi North 16.1 mph 24.2 mph 0.01 in Snow Light Snow
9:39 PM 32.0 °F 21.2 °F 30.2 °F 93% 29.98 in 3.0 mi NNE 16.1 mph - 0.01 in Snow Light Snow
9:49 PM 32.0 °F 21.2 °F 30.2 °F 93% 29.98 in 2.5 mi North 16.1 mph - 0.01 in Snow Light Snow
9:53 PM 30.9 °F 19.1 °F 28.9 °F 92% 29.99 in 2.5 mi North 18.4 mph 23.0 mph 0.01 in Snow Light Snow
10:00 PM 30.2 °F 18.5 °F 30.2 °F 100% 29.98 in 3.0 mi North 17.3 mph - 0.00 in Snow Light Snow
10:35 PM 30.2 °F 17.8 °F 28.4 °F 93% 29.99 in 2.5 mi North 19.6 mph - 0.00 in Snow Light Snow
10:49 PM 30.2 °F 16.8 °F 26.6 °F 86% 29.98 in 1.8 mi North 23.0 mph 28.8 mph 0.00 in Snow Light Snow
10:53 PM 30.0 °F 16.9 °F 27.0 °F 88% 30.00 in 1.2 mi North 21.9 mph - 0.00 in Snow Light Snow
11:08 PM 28.4 °F 15.8 °F 26.6 °F 93% 29.98 in 1.5 mi North 18.4 mph - 0.00 in Snow Light Snow
11:18 PM 28.4 °F 17.0 °F 26.6 °F 93% 29.98 in 2.0 mi North 15.0 mph - 0.00 in Snow Light Snow
11:30 PM 28.4 °F 15.4 °F 26.6 °F 93% 29.99 in 1.8 mi North 19.6 mph 26.5 mph 0.00 in Snow Light Snow
11:46 PM 28.4 °F 17.0 °F 26.6 °F 93% 30.00 in 2.0 mi North 15.0 mph - 0.00 in Snow Light Snow
11:53 PM 28.9 °F 16.9 °F 26.1 °F 89% 30.02 in 3.0 mi North 17.3 mph - 0.00 in Snow Light Snow